Flag for Austria Weather past 2 weeks in St. Johann im Pongau, Salzburg, Austria

Now
61 °F

Passing clouds.


Feels Like: 61 °F
Forecast: 60 / 83 °F
Wind: 6 mph from South

Location: Salzburg-Flughafen

Current Time: Jun 3, 2015 at 4:10:17 AM

Latest Report: Jun 3, 2015 at 3:20 AM


Visibility: N/A

Pressure: 30.15 "Hg

Humidity: 83%

Dew point: 55 °F

Location of St. Johann im PongauLocation

Historic Weather in St. Johann im Pongau — Graph

°F

St. Johann im Pongau temperature yesterday

Maximum temperature yesterday: 79 °F (at 3:20 PM)
Minimum temperature yesterday: 57 °F (at 2:50 AM)
Average temperature yesterday: 69 °F

Past Weeks' High & Low Weather Summary

 TemperatureHumidityPressure
High79 °F (Jun 2, 3:20 PM)100% (May 20, 6:50 AM)30.27 "Hg (May 20, 6:50 AM)
Low41 °F (May 28, 3:50 AM)29% (May 29, 1:50 PM)29.74 "Hg (May 19, 2:50 AM)
Average56 °F80%30.05 "Hg
* Reported May 19 2:20 AM — Jun 3 2:50 AM, St. Johann im Pongau, Weather by CustomWeather, © 2015

Note: Actual official high and low records may vary slightly from our data, if they occured in-between our weather recording intervals... More about our weather records

Advertising

St. Johann im Pongau weather history for previous 24 hours

 ConditionsComfort  
Time TempWeatherWind HumidityBarometerVisibility
2:50 AM
Wed, Jun 3
59 °FPassing clouds.6 mph88%30.15 "HgN/A
2:20 AM59 °FCool.5 mph88%30.15 "HgN/A
1:50 AM59 °FCool.5 mph88%30.15 "HgN/A
1:20 AM61 °FCool.5 mph83%30.15 "HgN/A
12:50 AM63 °FMild.5 mph83%30.15 "HgN/A
12:20 AM63 °FMild.3 mph83%30.12 "HgN/A
11:50 PM
Tue, Jun 2
64 °FClear.5 mph78%30.12 "Hg10 mi
11:20 PM64 °FMild.3 mph78%30.12 "HgN/A
10:50 PM66 °FClear.5 mph73%30.12 "Hg10 mi
10:20 PM66 °FPassing clouds.5 mph73%30.12 "HgN/A
9:50 PM68 °FPassing clouds.5 mph73%30.12 "HgN/A
9:20 PM70 °FSunny.2 mph73%30.09 "Hg10 mi
8:50 PM75 °FPartly sunny.3 mph50%30.09 "HgN/A
8:20 PM77 °FPartly sunny.6 mph44%30.09 "HgN/A
7:50 PM77 °FPartly sunny.7 mph47%30.09 "HgN/A
7:20 PM75 °FPartly sunny.7 mph54%30.09 "HgN/A
6:50 PM77 °FScattered clouds.6 mph47%30.07 "HgN/A
6:20 PM79 °FPassing clouds.5 mph42%30.07 "HgN/A
5:50 PM79 °FPassing clouds.5 mph45%30.07 "HgN/A
5:20 PM79 °FPassing clouds.8 mph48%30.07 "HgN/A
4:50 PM79 °FPassing clouds.5 mph42%30.07 "HgN/A
4:20 PM79 °FPassing clouds.9 mph45%30.07 "HgN/A
3:50 PM79 °FPassing clouds.5 mph39%30.07 "HgN/A
3:20 PM79 °FPassing clouds.5 mph45%30.09 "HgN/A
2:50 PM77 °FScattered clouds.8 mph42%30.09 "HgN/A
2:20 PM77 °FPartly sunny.5 mph42%30.09 "HgN/A
1:50 PM77 °FPartly sunny.5 mph42%30.09 "HgN/A
1:20 PM77 °FPartly sunny.5 mph44%30.09 "HgN/A
12:50 PM75 °FScattered clouds.7 mph44%30.12 "HgN/A
12:20 PM75 °FPartly sunny.3 mph44%30.12 "HgN/A
11:50 AM73 °FScattered clouds.2 mph47%30.12 "HgN/A
11:20 AM73 °FPassing clouds.6 mph57%30.12 "HgN/A
10:50 AM72 °FPassing clouds.8 mph65%30.12 "HgN/A
10:20 AM70 °FPassing clouds.8 mph69%30.12 "HgN/A
9:50 AM66 °FScattered clouds.9 mph78%30.12 "HgN/A
9:20 AM64 °FScattered clouds.8 mph83%30.12 "HgN/A
8:50 AM63 °FPartly sunny.9 mph83%30.12 "HgN/A
8:20 AM63 °FPartly sunny.9 mph83%30.12 "HgN/A
7:50 AM63 °FScattered clouds.9 mph83%30.09 "HgN/A
7:20 AM59 °FScattered clouds.9 mph94%30.09 "HgN/A
6:50 AM59 °FBroken clouds.9 mph94%30.09 "HgN/A
5:20 AM57 °FPartly cloudy.8 mph100%30.09 "HgN/A
4:50 AM57 °FPartly cloudy.6 mph100%30.12 "HgN/A
4:20 AM57 °FLight rain. Passing clouds.3 mph100%30.12 "HgN/A
Weather by CustomWeather, © 2015

See weather overviewHow to use our weather pages